GW4305 Weather Reports


time (UTC)temp
C
wind
direction
speed
KPH
gust
KPH
rain 1hr
cm
rain 24hr
cm
rain mn
cm
humidity
%
barometer
mb
20260503052329 11 312 0.0 1.6 0.00 0.00 0.00 43 1013.5
20260503051825 11 275 0.0 0.0 0.00 0.00 0.00 49 1013.6
20260503051321 11 272 0.0 0.0 0.00 0.00 0.00 53 1013.4
20260503050818 11 276 0.0 0.0 0.00 0.00 0.00 56 1013.8
20260503050314 11 274 0.0 0.0 0.00 0.00 0.00 56 1013.6
20260503045812 11 274 0.0 0.0 0.00 0.00 0.00 58 1013.7
20260503045310 11 275 0.0 0.0 0.00 0.00 0.00 58 1013.6
20260503044806 11 273 0.0 0.0 0.00 0.00 0.00 57 1013.6
20260503044303 11 272 0.0 0.0 0.00 0.00 0.00 57 1013.6
20260503043800 12 274 0.0 0.0 0.00 0.00 0.00 56 1013.6
20260503043257 12 269 0.0 1.6 0.00 0.00 0.00 56 1013.6
20260503042753 12 267 0.0 0.0 0.00 0.00 0.00 56 1013.4
20260503042250 12 194 3.2 4.8 0.00 0.00 0.00 56 1013.4
20260503041745 12 266 0.0 1.6 0.00 0.00 0.00 57 1013.4
20260503041243 12 262 0.0 0.0 0.00 0.00 0.00 56 1013.4
20260503040741 12 267 0.0 1.6 0.00 0.00 0.00 55 1013.5
20260503040239 12 238 0.0 3.2 0.00 0.00 0.00 54 1013.5
20260503035735 13 266 1.6 3.2 0.00 0.00 0.00 54 1013.4
20260503035232 13 256 0.0 1.6 0.00 0.00 0.00 54 1013.4
20260503034730 13 270 0.0 1.6 0.00 0.00 0.00 53 1013.4
20260503034226 13 269 0.0 3.2 0.00 0.00 0.00 52 1013.3
20260503033724 13 269 0.0 1.6 0.00 0.00 0.00 52 1013.4
20260503033221 13 278 0.0 0.0 0.00 0.00 0.00 52 1013.3
20260503032720 13 243 0.0 3.2 0.00 0.00 0.00 52 1013.3
20260503032218 13 266 0.0 1.6 0.00 0.00 0.00 51 1013.2
20260503031714 14 261 0.0 1.6 0.00 0.00 0.00 50 1013.4
20260503031213 14 254 1.6 3.2 0.00 0.00 0.00 49 1013.2
20260503030708 14 270 0.0 3.2 0.00 0.00 0.00 49 1013.1
20260503030205 15 278 1.6 3.2 0.00 0.00 0.00 48 1013.2
20260503025702 15 279 0.0 4.8 0.00 0.00 0.00 46 1013.2
20260503025200 15 276 0.0 3.2 0.00 0.00 0.00 45 1013.3
20260503024656 16 9 3.2 3.2 0.00 0.00 0.00 44 1013.1
20260503024154 16 283 1.6 3.2 0.00 0.00 0.00 43 1013.0
20260503023650 16 284 4.8 8.0 0.00 0.00 0.00 43 1012.8
20260503023147 16 270 1.6 3.2 0.00 0.00 0.00 42 1013.1
20260503022644 16 209 0.0 9.7 0.00 0.00 0.00 42 1013.1
20260503022143 16 283 3.2 4.8 0.00 0.00 0.00 42 1013.1
20260503021640 16 293 0.0 3.2 0.00 0.00 0.00 41 1013.0
20260503021136 17 104 1.6 3.2 0.00 0.00 0.00 41 1013.2
20260503020634 17 276 3.2 8.0 0.00 0.00 0.00 40 1013.1
20260503020131 17 226 6.4 9.7 0.00 0.00 0.00 40 1012.8
20260503015628 17 191 0.0 4.8 0.00 0.00 0.00 40 1013.2
20260503015125 17 269 1.6 4.8 0.00 0.00 0.00 39 1013.3
20260503014620 17 167 1.6 4.8 0.00 0.00 0.00 39 1013.4
20260503014118 17 207 1.6 4.8 0.00 0.00 0.00 38 1013.4
20260503013615 17 230 4.8 9.7 0.00 0.00 0.00 38 1013.4
20260503013114 17 18 3.2 9.7 0.00 0.00 0.00 38 1013.5
20260503012611 18 290 1.6 3.2 0.00 0.00 0.00 37 1013.4
20260503012107 18 296 1.6 4.8 0.00 0.00 0.00 37 1013.4
20260503011603 18 126 4.8 4.8 0.00 0.00 0.00 36 1013.7
20260503011101 18 40 1.6 3.2 0.00 0.00 0.00 35 1013.6
20260503010557 18 273 1.6 4.8 0.00 0.00 0.00 34 1013.5
20260503010055 18 301 0.0 3.2 0.00 0.00 0.00 34 1013.6
20260503005551 18 242 1.6 3.2 0.00 0.00 0.00 34 1013.8
20260503005049 19 275 0.0 3.2 0.00 0.00 0.00 33 1013.6
20260503004544 19 285 0.0 1.6 0.00 0.00 0.00 34 1014.0
20260503004043 20 358 1.6 3.2 0.00 0.00 0.00 32 1013.7
20260503003539 20 274 1.6 4.8 0.00 0.00 0.00 32 1014.0
20260503003037 20 227 1.6 3.2 0.00 0.00 0.00 30 1013.7
20260503002533 20 231 0.0 3.2 0.00 0.00 0.00 32 1013.7
20260503002030 20 278 0.0 3.2 0.00 0.00 0.00 30 1014.0
20260503001527 21 228 0.0 3.2 0.00 0.00 0.00 30 1014.0
20260503001024 20 252 0.0 1.6 0.00 0.00 0.00 33 1014.0
20260503000522 20 268 1.6 3.2 0.00 0.00 0.00 33 1014.0
20260503000018 20 205 0.0 3.2 0.00 0.00 0.00 31 1013.8
20260502235515 20 266 1.6 8.0 0.00 0.00 0.00 31 1014.2
20260502235013 21 278 0.0 3.2 0.00 0.00 0.00 30 1014.0
20260502234509 21 281 0.0 1.6 0.00 0.00 0.00 31 1014.1
20260502234007 20 279 0.0 1.6 0.00 0.00 0.00 30 1014.4
20260502233506 20 281 0.0 1.6 0.00 0.00 0.00 31 1014.3
20260502233004 21 293 0.0 4.8 0.00 0.00 0.00 30 1014.3
20260502232500 20 346 1.6 1.6 0.00 0.00 0.00 30 1014.6
20260502231957 21 239 1.6 3.2 0.00 0.00 0.00 30 1014.3
20260502231454 20 284 1.6 4.8 0.00 0.00 0.00 30 1014.6
20260502230952 20 274 0.0 4.8 0.00 0.00 0.00 32 1014.7
20260502230450 20 249 1.6 4.8 0.00 0.00 0.00 32 1014.8
20260502225948 20 23 0.0 8.0 0.00 0.00 0.00 33 1014.7
20260502225444 20 259 1.6 3.2 0.00 0.00 0.00 32 1014.8
20260502224941 20 252 4.8 4.8 0.00 0.00 0.00 31 1015.0
20260502224437 20 183 1.6 1.6 0.00 0.00 0.00 34 1014.8
20260502223934 20 150 3.2 4.8 0.00 0.00 0.00 33 1015.2
20260502223432 20 271 1.6 9.7 0.00 0.00 0.00 33 1015.2
20260502222930 20 244 4.8 8.0 0.00 0.00 0.00 32 1015.3
20260502222427 20 279 1.6 3.2 0.00 0.00 0.00 34 1015.4
20260502221922 20 170 3.2 8.0 0.00 0.00 0.00 33 1015.4
20260502221419 20 201 3.2 9.7 0.00 0.00 0.00 33 1015.5
20260502220916 20 275 1.6 4.8 0.00 0.00 0.00 33 1015.6
20260502220412 20 233 0.0 1.6 0.00 0.00 0.00 35 1015.6
20260502215909 20 289 1.6 4.8 0.00 0.00 0.00 33 1015.6
20260502215406 20 332 1.6 8.0 0.00 0.00 0.00 33 1015.5
20260502214902 20 235 4.8 9.7 0.00 0.00 0.00 34 1015.8
20260502214359 19 145 1.6 4.8 0.00 0.00 0.00 35 1016.0
20260502213856 18 153 1.6 4.8 0.00 0.00 0.00 40 1016.1
20260502213353 17 78 0.0 3.2 0.00 0.00 0.00 37 1016.1
20260502212852 19 319 1.6 4.8 0.00 0.00 0.00 35 1016.3
20260502212350 18 186 1.6 8.0 0.00 0.00 0.00 37 1016.3
20260502211847 19 14 1.6 4.8 0.00 0.00 0.00 34 1016.5
20260502211343 20 140 4.8 4.8 0.00 0.00 0.00 35 1016.4
20260502210840 20 77 1.6 8.0 0.00 0.00 0.00 35 1016.5
20260502210337 19 167 0.0 3.2 0.00 0.00 0.00 35 1016.6
20260502205834 18 171 1.6 4.8 0.00 0.00 0.00 38 1016.7
20260502205330 19 78 1.6 3.2 0.00 0.00 0.00 34 1016.8
20260502204828 19 107 3.2 4.8 0.00 0.00 0.00 35 1016.8
20260502204325 18 283 1.6 9.7 0.00 0.00 0.00 35 1016.8
20260502203822 18 65 1.6 4.8 0.00 0.00 0.00 39 1017.1
20260502203320 18 308 1.6 1.6 0.00 0.00 0.00 36 1017.2
20260502202815 17 278 0.0 4.8 0.00 0.00 0.00 38 1017.2
20260502202313 17 250 0.0 8.0 0.00 0.00 0.00 37 1017.3
20260502201811 17 79 3.2 4.8 0.00 0.00 0.00 39 1017.3
20260502201306 17 110 1.6 4.8 0.00 0.00 0.00 39 1017.5
20260502200803 18 109 1.6 9.7 0.00 0.00 0.00 38 1017.5
20260502200259 18 186 3.2 4.8 0.00 0.00 0.00 38 1017.6
20260502195757 18 302 0.0 3.2 0.00 0.00 0.00 36 1018.0
20260502195253 17 150 4.8 8.0 0.00 0.00 0.00 39 1017.7
20260502194750 17 281 3.2 4.8 0.00 0.00 0.00 37 1017.8
20260502194247 18 213 0.0 4.8 0.00 0.00 0.00 35 1017.7
20260502193743 18 66 1.6 8.0 0.00 0.00 0.00 35 1018.1
20260502193240 17 335 0.0 1.6 0.00 0.00 0.00 40 1018.2
20260502192735 16 261 3.2 9.7 0.00 0.00 0.00 42 1018.2
20260502192233 17 78 3.2 8.0 0.00 0.00 0.00 40 1018.1
20260502191729 17 115 4.8 11.3 0.00 0.00 0.00 40 1018.1
20260502191227 17 189 1.6 1.6 0.00 0.00 0.00 41 1018.4
20260502190724 16 132 1.6 11.3 0.00 0.00 0.00 44 1018.3
20260502190222 17 24 3.2 4.8 0.00 0.00 0.00 43 1018.5
20260502185721 16 280 1.6 4.8 0.00 0.00 0.00 42 1018.6
20260502185218 16 99 1.6 3.2 0.00 0.00 0.00 42 1018.5
20260502184714 17 87 1.6 3.2 0.00 0.00 0.00 41 1018.7
20260502184210 15 257 0.0 3.2 0.00 0.00 0.00 44 1018.8
20260502183707 15 62 4.8 8.0 0.00 0.00 0.00 43 1018.8
20260502183203 16 83 3.2 9.7 0.00 0.00 0.00 42 1019.0
20260502182658 15 198 3.2 4.8 0.00 0.00 0.00 44 1018.8
20260502182154 15 79 3.2 9.7 0.00 0.00 0.00 44 1019.1
20260502181651 16 42 1.6 8.0 0.00 0.00 0.00 42 1019.3
20260502181150 15 96 8.0 12.9 0.00 0.00 0.00 42 1019.3
20260502180647 15 119 3.2 12.9 0.00 0.00 0.00 45 1019.3
20260502180144 15 67 1.6 4.8 0.00 0.00 0.00 43 1019.4
20260502170108 14 346 3.2 4.8 0.00 0.00 0.00 46 1020.1
20260502164055 14 145 3.2 3.2 0.00 0.00 0.00 47 1020.3
20260502163551 13 307 0.0 4.8 0.00 0.00 0.00 48 1020.2
20260502163048 13 46 1.6 1.6 0.00 0.00 0.00 46 1020.5
20260502162544 13 60 4.8 8.0 0.00 0.00 0.00 49 1020.4
20260502162042 14 84 1.6 4.8 0.00 0.00 0.00 48 1020.4
20260502161538 13 303 0.0 3.2 0.00 0.00 0.00 49 1020.4
20260502161036 12 47 0.0 1.6 0.00 0.00 0.00 52 1020.3
20260502160534 12 139 1.6 3.2 0.00 0.00 0.00 54 1020.3
20260502151947 11 269 0.0 0.0 0.00 0.00 0.00 54 1020.7
20260502151443 11 269 0.0 0.0 0.00 0.00 0.00 54 1020.4
20260502150941 11 258 0.0 0.0 0.00 0.00 0.00 55 1020.6
20260502150437 11 276 0.0 0.0 0.00 0.00 0.00 57 1020.5
20260502130323 8 281 0.0 0.0 0.00 0.00 0.00 69 1020.2
20260502123809 8 277 0.0 0.0 0.00 0.00 0.00 69 1020.1
20260502123306 8 273 0.0 1.6 0.00 0.00 0.00 69 1020.2
20260502122802 8 284 0.0 0.0 0.00 0.00 0.00 70 1020.2
20260502122258 7 277 0.0 0.0 0.00 0.00 0.00 70 1020.3
20260502121757 7 283 0.0 0.0 0.00 0.00 0.00 70 1020.1
20260502121254 7 295 0.0 0.0 0.00 0.00 0.00 70 1020.1
20260502120751 8 289 0.0 0.0 0.00 0.00 0.00 70 1020.1
20260502120248 8 281 0.0 0.0 0.00 0.00 0.00 69 1020.1
20260502115746 8 319 0.0 0.0 0.00 0.00 0.00 69 1020.1
20260502115242 8 319 0.0 0.0 0.00 0.00 0.00 68 1020.2
20260502114738 8 319 0.0 0.0 0.00 0.00 0.00 68 1020.0
20260502114235 8 280 0.0 0.0 0.00 0.00 0.00 68 1020.2
20260502113732 8 278 0.0 0.0 0.00 0.00 0.00 68 1020.1
20260502113230 8 272 0.0 0.0 0.00 0.00 0.00 67 1020.3
20260502112728 8 280 0.0 0.0 0.00 0.00 0.00 67 1020.0
20260502112225 8 283 0.0 0.0 0.00 0.00 0.00 67 1020.1
20260502111722 8 282 0.0 0.0 0.00 0.00 0.00 67 1020.0
20260502111220 8 260 0.0 0.0 0.00 0.00 0.00 67 1020.0
20260502110717 8 273 0.0 0.0 0.00 0.00 0.00 67 1020.0
20260502110215 8 276 0.0 0.0 0.00 0.00 0.00 66 1020.1
20260502105713 8 276 0.0 0.0 0.00 0.00 0.00 66 1020.0
20260502105209 8 269 0.0 1.6 0.00 0.00 0.00 66 1020.1
20260502104706 8 277 0.0 0.0 0.00 0.00 0.00 67 1020.3
20260502104204 9 274 0.0 0.0 0.00 0.00 0.00 66 1020.1
20260502103701 9 275 0.0 0.0 0.00 0.00 0.00 66 1020.1
20260502103159 9 279 0.0 0.0 0.00 0.00 0.00 65 1020.1
20260502102655 9 278 0.0 0.0 0.00 0.00 0.00 64 1019.8
20260502102152 10 282 0.0 1.6 0.00 0.00 0.00 64 1020.0
20260502101650 9 272 0.0 0.0 0.00 0.00 0.00 64 1020.0
20260502101148 10 274 0.0 0.0 0.00 0.00 0.00 64 1020.0
20260502100646 9 265 0.0 1.6 0.00 0.00 0.00 64 1020.0
20260502100144 9 272 0.0 0.0 0.00 0.00 0.00 64 1020.0
20260502091118 9 322 0.0 0.0 0.00 0.00 0.00 65 1019.8
20260502090615 10 321 0.0 1.6 0.00 0.00 0.00 64 1019.8
20260502090113 10 278 0.0 0.0 0.00 0.00 0.00 64 1019.7
20260502071510 10 274 0.0 0.0 0.00 0.00 0.00 61 1019.5
20260502071008 10 326 0.0 0.0 0.00 0.00 0.00 61 1019.6
20260502070506 10 290 1.6 1.6 0.00 0.00 0.00 61 1019.6
20260502070004 10 262 0.0 0.0 0.00 0.00 0.00 62 1019.7
20260502065502 10 262 0.0 1.6 0.00 0.00 0.00 62 1019.7
20260502065000 10 286 1.6 3.2 0.00 0.00 0.00 62 1019.6
20260502064458 10 280 0.0 0.0 0.00 0.00 0.00 62 1019.7
20260502063954 10 277 0.0 1.6 0.00 0.00 0.00 62 1019.6
20260502063452 10 278 0.0 0.0 0.00 0.00 0.00 62 1019.6
20260502062949 10 281 0.0 1.6 0.00 0.00 0.00 61 1019.5
20260502062446 10 280 0.0 0.0 0.00 0.00 0.00 61 1019.4
20260502061945 10 285 0.0 1.6 0.00 0.00 0.00 61 1019.4
20260502061442 10 277 0.0 0.0 0.00 0.00 0.00 62 1019.7
20260502060938 10 272 0.0 0.0 0.00 0.00 0.00 61 1019.5
20260502060434 10 271 0.0 0.0 0.00 0.00 0.00 60 1019.4
20260502055931 11 269 0.0 1.6 0.00 0.00 0.00 58 1019.4
20260502055429 11 280 0.0 1.6 0.00 0.00 0.00 57 1019.5
20260502054928 11 272 0.0 0.0 0.00 0.00 0.00 56 1019.5
20260502054426 11 275 0.0 0.0 0.00 0.00 0.00 56 1019.4
20260502053923 11 272 0.0 0.0 0.00 0.00 0.00 56 1019.2
20260502053420 11 267 0.0 0.0 0.00 0.00 0.00 55 1019.3
20260502052918 11 265 0.0 1.6 0.00 0.00 0.00 55 1019.3
20260502052416 11 278 0.0 1.6 0.00 0.00 0.00 55 1019.3